This is the latest recevied weather packets stored in our database for station/object OE3CJB-13. If no packets are shown the sender has not sent any weather packets the latest 10 day(s).
| Time | Temp. | Humidity | Pressure | Rain* | Wind** | Luminosity | Snow |
|---|---|---|---|---|---|---|---|
| 1788277538 | 27.22° C | 17% | 1189.2 hPa | 0 mm | - | - | - |
| 1788276674 | 27.22° C | 18% | 1189.2 hPa | 0 mm | - | - | - |
| 1788275757 | 27.78° C | 18% | 1190 hPa | 0 mm | - | - | - |
| 1788274847 | 27.78° C | 18% | 1190 hPa | 0 mm | - | - | - |
| 1788273933 | 27.22° C | 18% | 1192.4 hPa | 0 mm | - | - | - |
| 1788273021 | 28.33° C | 18% | 1193.2 hPa | 0 mm | - | - | - |
| 1788272162 | 28.33° C | 20% | 1193.2 hPa | 0 mm | - | - | - |
| 1788271248 | 28.33° C | 20% | 1194.1 hPa | 0 mm | - | - | - |
| 1788270334 | 28.33° C | 21% | 1195.5 hPa | 0 mm | - | - | - |
| 1788269421 | 28.33° C | 22% | 1197.3 hPa | 0 mm | - | - | - |
| 1788268557 | 27.78° C | 22% | 1197.4 hPa | 0 mm | - | - | - |
| 1788267647 | 27.78° C | 24% | 1197.4 hPa | 0 mm | - | - | - |
| 1788266733 | 27.22° C | 24% | 1196.6 hPa | 0 mm | - | - | - |
| 1788265821 | 27.22° C | 26% | 1196.8 hPa | 0 mm | - | - | - |
| 1788264958 | 26.67° C | 27% | 1196.9 hPa | 0 mm | - | - | - |
| 1788264047 | 26.67° C | 29% | 1197.7 hPa | 0 mm | - | - | - |
| 1788263138 | 26.11° C | 30% | 1196.1 hPa | 0 mm | - | - | - |
| 1788262221 | 26.11° C | 30% | 1195.4 hPa | 0 mm | - | - | - |
| 1788261366 | 26.11° C | 31% | 1195.4 hPa | 0 mm | - | - | - |
| 1788260465 | 25.56° C | 34% | 1196.3 hPa | 0 mm | - | - | - |
| 1788259550 | 25° C | 35% | 1194.6 hPa | 0 mm | - | - | - |
| 1788258639 | 24.44° C | 35% | 1194.8 hPa | 0 mm | - | - | - |
| 1788257757 | 24.44° C | 38% | 1194.8 hPa | 0 mm | - | - | - |
| 1788256847 | 24.44° C | 39% | 1194 hPa | 0 mm | - | - | - |
| 1788255932 | 23.89° C | 42% | 1194.2 hPa | 0 mm | - | - | - |
* Rain latest hour (hover to see other rain measurements)
** Current wind speed in m/s (hover to see current wind gust speed)